{"data":{"norad_id":63788,"epoch":"2026-09-20T08:28:49.288800Z","epoch_age_seconds":162566,"freshness":"FRESH","line1":"1 63788U 25091P   26263.35334825  .00010484  00000+0  38987-3 0  9995","line2":"2 63788  43.0054  33.1525 0003174 279.5233  80.5260 15.27586967 78669","mean_motion":15.27586967,"eccentricity":0.0003174,"inclination_deg":43.0054,"raan_deg":33.1525,"arg_perigee_deg":279.5233,"mean_anomaly_deg":80.526,"bstar":0.00038987,"rev_number":7866,"period_min":94.266318783014,"perigee_km":480.85050056917,"apogee_km":485.20596825998,"semimajor_km":6861.1652344146,"source":"CELESTRAK","updated_at":"2026-09-21T09:00:35.100299Z"}}